K5GHS-1 Weather Reports


Display with metric or nautical units.
time (UTC)temp
F
wind
direction
speed
MPH
gust
MPH
rain 1hr
in
rain 24hr
in
rain mn
in
humidity
%
barometer
mb
20260506230758 61 77 1.0 1.0 0.00 0.10 0.10 78 1012.2
20260506230249 61 72 0.0 1.0 0.00 0.10 0.10 78 1012.2
20260506225746 61 71 1.0 1.0 0.00 0.10 0.10 78 1012.1
20260506225243 61 73 0.0 1.0 0.00 0.10 0.10 78 1012.1
20260506224739 62 73 0.0 1.0 0.00 0.10 0.10 77 1012.4
20260506224237 62 69 0.0 1.0 0.00 0.10 0.10 77 1012.2
20260506223733 61 76 0.0 2.0 0.00 0.10 0.10 78 1011.8
20260506223228 61 74 0.0 3.0 0.00 0.10 0.10 78 1012.0
20260506222726 61 74 0.0 1.0 0.00 0.10 0.10 78 1012.0
20260506222221 61 72 0.0 1.0 0.00 0.10 0.10 77 1012.1
20260506221719 61 60 0.0 1.0 0.00 0.10 0.10 77 1012.0
20260506221217 61 41 1.0 2.0 0.00 0.10 0.10 77 1011.9
20260506220714 61 63 0.0 1.0 0.00 0.10 0.10 77 1011.7
20260506220208 61 74 0.0 2.0 0.00 0.10 0.10 77 1011.7
20260506215705 61 71 0.0 1.0 0.00 0.10 0.10 77 1011.6
20260506215201 61 68 1.0 2.0 0.00 0.10 0.10 77 1011.7
20260506214658 61 80 1.0 2.0 0.00 0.10 0.10 77 1011.5
20260506214155 61 65 0.0 5.0 0.00 0.10 0.10 76 1011.9
20260506213654 62 55 1.0 1.0 0.00 0.10 0.10 75 1012.1
20260506213150 62 75 0.0 1.0 0.00 0.10 0.10 75 1012.1
20260506212647 62 71 0.0 0.0 0.00 0.10 0.10 76 1012.0
20260506212142 62 72 0.0 3.0 0.00 0.10 0.10 76 1012.0
20260506211638 62 64 0.0 2.0 0.00 0.10 0.10 76 1011.9
20260506211135 61 67 0.0 2.0 0.00 0.10 0.10 76 1011.9
20260506210632 61 234 0.0 2.0 0.00 0.10 0.10 76 1012.1
20260506210129 61 77 0.0 1.0 0.00 0.10 0.10 76 1012.1
20260506205626 61 59 0.0 1.0 0.00 0.10 0.10 76 1011.9
20260506205120 61 68 0.0 1.0 0.00 0.10 0.10 76 1012.1
20260506204619 61 78 0.0 1.0 0.00 0.10 0.10 75 1012.3
20260506204115 61 77 0.0 1.0 0.00 0.10 0.10 75 1011.9
20260506203614 61 69 0.0 2.0 0.00 0.10 0.10 75 1012.4
20260506203110 61 61 0.0 1.0 0.00 0.10 0.10 75 1012.4
20260506202608 61 69 0.0 0.0 0.00 0.10 0.10 76 1012.3
20260506202104 61 59 0.0 2.0 0.00 0.10 0.10 75 1012.2
20260506201601 62 69 0.0 0.0 0.00 0.10 0.10 76 1012.4
20260506201058 62 68 0.0 2.0 0.00 0.10 0.10 76 1012.5
20260506200554 62 72 0.0 1.0 0.00 0.10 0.10 78 1012.4
20260506200051 61 69 0.0 1.0 0.00 0.10 0.10 79 1012.2
20260506195547 60 72 0.0 1.0 0.00 0.10 0.10 78 1012.8
20260506195044 60 70 0.0 0.0 0.00 0.10 0.10 79 1013.2
20260506194542 60 70 0.0 0.0 0.00 0.10 0.10 79 1013.0
20260506194038 60 80 0.0 0.0 0.00 0.10 0.10 80 1013.1
20260506193536 60 71 0.0 0.0 0.00 0.10 0.10 80 1013.1
20260506193033 59 79 0.0 0.0 0.00 0.10 0.10 80 1012.6
20260506192529 59 73 0.0 0.0 0.00 0.10 0.10 80 1012.8
20260506192025 59 69 0.0 1.0 0.00 0.10 0.10 80 1013.1
20260506191522 59 69 0.0 0.0 0.00 0.10 0.10 81 1013.0
20260506191018 59 77 0.0 0.0 0.00 0.10 0.10 81 1013.2
20260506190515 59 74 0.0 1.0 0.00 0.10 0.10 81 1013.0
20260506190013 59 74 0.0 1.0 0.00 0.10 0.10 82 1012.8
20260506185510 58 71 0.0 0.0 0.00 0.10 0.10 82 1012.6
20260506185006 58 65 1.0 2.0 0.00 0.10 0.10 82 1012.0
20260506184503 58 78 0.0 2.0 0.00 0.10 0.10 82 1012.1
20260506184001 58 86 0.0 1.0 0.00 0.10 0.10 83 1011.8
20260506183456 58 71 2.0 2.0 0.00 0.10 0.10 83 1011.8
20260506182953 58 70 0.0 1.0 0.00 0.10 0.10 83 1011.7
20260506182450 58 67 0.0 1.0 0.00 0.10 0.10 83 1011.6
20260506181947 58 55 1.0 2.0 0.00 0.10 0.10 84 1011.6
20260506181446 58 74 1.0 3.0 0.00 0.10 0.10 86 1011.7
20260506180942 57 70 0.0 2.0 0.00 0.10 0.10 88 1011.7
20260506180438 56 68 0.0 1.0 0.00 0.10 0.10 88 1011.9
20260506175935 56 78 0.0 0.0 0.00 0.10 0.10 89 1011.9
20260506175432 55 73 1.0 2.0 0.00 0.10 0.10 89 1012.2
20260506174929 55 66 1.0 3.0 0.00 0.10 0.10 90 1012.2
20260506174427 55 71 1.0 2.0 0.00 0.10 0.10 90 1011.8
20260506173923 55 74 1.0 3.0 0.00 0.10 0.10 91 1011.9
20260506173420 54 71 0.0 2.0 0.00 0.10 0.10 91 1012.0
20260506172917 54 73 0.0 2.0 0.00 0.10 0.10 91 1012.1
20260506172414 54 90 0.0 7.0 0.00 0.10 0.10 92 1012.2
20260506171911 54 69 0.0 0.0 0.00 0.10 0.10 92 1012.4
20260506171408 54 79 0.0 1.0 0.00 0.10 0.10 92 1012.4
20260506170907 54 70 0.0 2.0 0.00 0.10 0.10 92 1012.2
20260506170402 54 70 1.0 2.0 0.00 0.10 0.10 92 1012.5
20260506165901 54 73 1.0 2.0 0.00 0.10 0.10 92 1012.7
20260506165359 54 71 0.0 3.0 0.00 0.10 0.10 92 1013.2
20260506164849 54 71 0.0 2.0 0.00 0.10 0.10 92 1013.5
20260506164346 54 66 0.0 0.0 0.00 0.10 0.10 92 1013.7
20260506163844 54 80 0.0 1.0 0.00 0.10 0.10 92 1014.1
20260506163338 54 70 0.0 0.0 0.00 0.10 0.10 92 1013.7
20260506162833 54 75 0.0 0.0 0.00 0.10 0.10 92 1013.6
20260506162331 54 73 0.0 0.0 0.00 0.10 0.10 92 1013.5
20260506161829 54 73 0.0 2.0 0.00 0.10 0.10 92 1013.1
20260506161325 54 76 0.0 1.0 0.00 0.10 0.10 92 1012.5
20260506160818 54 70 1.0 2.0 0.00 0.10 0.10 91 1012.0
20260506160314 55 79 0.0 2.0 0.00 0.10 0.10 91 1011.4
20260506155813 54 72 0.0 1.0 0.07 0.10 0.10 90 1012.2
20260506155309 54 245 2.0 5.0 0.19 0.10 0.10 89 1012.6
20260506153422 54 62 0.0 3.0 0.00 0.00 0.00 86 1014.7
20260506152919 54 71 1.0 1.0 0.00 0.00 0.00 85 1014.0
20260506152416 55 69 0.0 2.0 0.00 0.00 0.00 84 1013.6
20260506151915 55 71 1.0 2.0 0.00 0.00 0.00 84 1013.3
20260506151411 55 72 1.0 2.0 0.00 0.00 0.00 83 1013.1
20260506150909 54 64 0.0 1.0 0.00 0.00 0.00 83 1012.6
20260506150405 54 77 0.0 1.0 0.00 0.00 0.00 83 1013.1
20260506145902 54 74 0.0 0.0 0.00 0.00 0.00 83 1013.2
20260506145358 54 73 1.0 2.0 0.00 0.00 0.00 83 1013.1
20260506144856 54 72 1.0 3.0 0.00 0.00 0.00 82 1012.4
20260506144352 54 68 1.0 3.0 0.00 0.00 0.00 82 1013.2
20260506143850 54 71 0.0 2.0 0.00 0.00 0.00 82 1013.2
20260506143347 54 44 2.0 2.0 0.00 0.00 0.00 82 1013.1
20260506142846 55 84 0.0 1.0 0.00 0.00 0.00 82 1013.0
20260506142343 54 71 0.0 1.0 0.00 0.00 0.00 83 1012.7
20260506141841 54 72 0.0 1.0 0.00 0.00 0.00 83 1012.4
20260506141339 54 69 2.0 2.0 0.00 0.00 0.00 83 1012.3
20260506140837 54 69 0.0 1.0 0.00 0.00 0.00 83 1012.4
20260506140333 54 64 0.0 1.0 0.00 0.00 0.00 83 1012.2
20260506135830 54 57 1.0 2.0 0.00 0.00 0.00 83 1012.2
20260506135327 54 66 1.0 2.0 0.00 0.00 0.00 83 1012.2
20260506134823 54 65 1.0 2.0 0.00 0.00 0.00 83 1011.7
20260506134320 54 70 1.0 3.0 0.00 0.00 0.00 83 1012.0
20260506133817 54 67 0.0 1.0 0.00 0.00 0.00 84 1011.9
20260506133314 53 28 0.0 2.0 0.00 0.00 0.00 84 1012.1
20260506132810 53 77 0.0 3.0 0.00 0.00 0.00 85 1011.8
20260506132308 53 72 1.0 6.0 0.00 0.00 0.00 86 1011.6
20260506131806 53 102 1.0 1.0 0.00 0.00 0.00 87 1011.4
20260506131301 53 82 1.0 2.0 0.00 0.00 0.00 87 1011.6
20260506130758 53 70 0.0 2.0 0.00 0.00 0.00 87 1011.7
20260506130255 53 71 0.0 0.0 0.00 0.00 0.00 87 1011.4
20260506125753 53 61 0.0 3.0 0.00 0.00 0.00 86 1011.5
20260506125251 53 83 2.0 3.0 0.00 0.00 0.00 86 1011.4
20260506124749 53 68 0.0 1.0 0.00 0.00 0.00 86 1011.4
20260506124246 53 68 1.0 1.0 0.00 0.00 0.00 86 1011.4
20260506123743 53 71 0.0 1.0 0.00 0.00 0.00 86 1011.1
20260506123242 53 70 0.0 2.0 0.00 0.00 0.00 85 1011.3
20260506122738 53 69 0.0 3.0 0.00 0.00 0.00 85 1011.5
20260506122236 53 117 1.0 1.0 0.00 0.00 0.00 85 1011.4
20260506121734 53 72 0.0 1.0 0.00 0.00 0.00 85 1011.1
20260506121230 53 66 0.0 2.0 0.00 0.00 0.00 85 1011.0
20260506120727 53 82 0.0 1.0 0.00 0.00 0.00 85 1011.1
20260506120225 53 68 2.0 3.0 0.00 0.00 0.00 84 1011.0
20260506115723 53 57 1.0 1.0 0.00 0.00 0.00 84 1010.9
20260506115221 53 68 0.0 2.0 0.00 0.00 0.00 84 1010.8
20260506114719 53 72 1.0 2.0 0.00 0.00 0.00 84 1011.1
20260506114216 54 71 0.0 3.0 0.00 0.00 0.00 83 1010.8
20260506113714 54 38 1.0 6.0 0.00 0.00 0.00 83 1010.3
20260506113211 54 69 0.0 7.0 0.00 0.00 0.00 82 1010.5
20260506112707 55 71 0.0 0.0 0.00 0.00 0.00 81 1010.4
20260506112205 55 76 0.0 1.0 0.00 0.00 0.00 81 1010.5
20260506111703 55 66 0.0 1.0 0.00 0.00 0.00 81 1010.2
20260506111201 55 117 1.0 2.0 0.00 0.00 0.00 81 1010.2
20260506110657 55 72 0.0 2.0 0.00 0.00 0.00 80 1010.4
20260506110155 55 70 0.0 1.0 0.00 0.00 0.00 80 1010.1
20260506105651 55 66 1.0 1.0 0.00 0.00 0.00 79 1010.0
20260506105148 55 62 0.0 2.0 0.00 0.00 0.00 79 1010.1
20260506104646 55 69 0.0 3.0 0.00 0.00 0.00 78 1009.9
20260506104144 55 59 2.0 3.0 0.00 0.00 0.00 78 1009.9
20260506103641 55 63 2.0 5.0 0.00 0.00 0.00 77 1009.7
20260506103138 56 58 0.0 1.0 0.00 0.00 0.00 77 1009.5
20260506102636 55 77 0.0 2.0 0.00 0.00 0.00 77 1009.4
20260506102133 56 90 1.0 2.0 0.00 0.00 0.00 77 1009.6
20260506101629 56 71 0.0 1.0 0.00 0.00 0.00 76 1009.3
20260506101126 56 70 0.0 1.0 0.00 0.00 0.00 76 1009.2
20260506100625 56 69 1.0 1.0 0.00 0.00 0.00 76 1009.2
20260506100122 56 72 0.0 0.0 0.00 0.00 0.00 76 1009.1
20260506095621 56 70 0.0 1.0 0.00 0.00 0.00 76 1009.1
20260506095117 56 40 2.0 5.0 0.00 0.00 0.00 76 1008.9
20260506094615 56 62 0.0 3.0 0.00 0.00 0.00 76 1009.1
20260506094112 56 72 0.0 1.0 0.00 0.00 0.00 76 1009.2
20260506093611 56 77 0.0 1.0 0.00 0.00 0.00 76 1009.0
20260506093108 56 74 0.0 2.0 0.00 0.00 0.00 76 1008.9
20260506092605 57 61 0.0 1.0 0.00 0.00 0.00 75 1008.8
20260506092102 57 68 0.0 1.0 0.00 0.00 0.00 75 1009.0
20260506091600 57 74 0.0 0.0 0.00 0.00 0.00 75 1008.9
20260506091058 57 70 0.0 0.0 0.00 0.00 0.00 75 1008.9
20260506090555 57 69 0.0 1.0 0.00 0.00 0.00 75 1008.7
20260506090051 57 72 0.0 1.0 0.00 0.00 0.00 75 1008.5
20260506085548 57 72 0.0 1.0 0.00 0.00 0.00 76 1008.5
20260506085044 58 71 1.0 2.0 0.00 0.00 0.00 76 1008.5
20260506084542 58 56 0.0 1.0 0.00 0.00 0.00 76 1008.7
20260506084038 58 63 0.0 2.0 0.00 0.00 0.00 76 1008.5
20260506083535 58 58 0.0 1.0 0.00 0.00 0.00 76 1008.3
20260506083032 58 67 0.0 2.0 0.00 0.00 0.00 76 1008.3
20260506082529 58 325 3.0 5.0 0.00 0.00 0.00 76 1008.5
20260506082025 58 73 0.0 0.0 0.00 0.00 0.00 76 1008.3
20260506081523 58 68 1.0 2.0 0.00 0.00 0.00 76 1008.5
20260506081020 58 71 0.0 1.0 0.00 0.00 0.00 76 1008.2
20260506080518 58 81 0.0 0.0 0.00 0.00 0.00 76 1008.0
20260506073501 58 73 0.0 1.0 0.00 0.00 0.00 76 1008.1
20260506072958 58 71 0.0 1.0 0.00 0.00 0.00 76 1007.8
20260506072455 58 104 0.0 1.0 0.00 0.00 0.00 76 1008.2
20260506071953 58 57 0.0 2.0 0.00 0.00 0.00 77 1008.4
20260506071451 58 53 1.0 2.0 0.00 0.00 0.00 77 1008.2
20260506070948 58 72 0.0 1.0 0.00 0.00 0.00 77 1008.3
20260506070445 58 77 0.0 2.0 0.00 0.00 0.00 77 1008.3
20260506062422 59 72 1.0 2.0 0.00 0.00 0.00 79 1008.1
20260506061918 59 59 1.0 1.0 0.00 0.00 0.00 79 1008.2
20260506061415 59 67 0.0 1.0 0.00 0.00 0.00 79 1008.1
20260506060913 59 58 1.0 6.0 0.00 0.00 0.00 79 1008.2
20260506060411 60 68 1.0 2.0 0.00 0.00 0.00 79 1008.3
20260506051342 61 286 1.0 3.0 0.00 0.00 0.00 79 1008.3
20260506050840 61 76 0.0 2.0 0.00 0.00 0.00 79 1008.2
20260506050337 61 76 0.0 2.0 0.00 0.00 0.00 80 1008.3
20260506044828 61 73 0.0 1.0 0.00 0.00 0.00 80 1008.2
20260506044325 62 74 0.0 3.0 0.00 0.00 0.00 80 1008.1
20260506043822 62 67 0.0 1.0 0.00 0.00 0.00 80 1008.1
20260506043320 62 73 2.0 5.0 0.00 0.00 0.00 80 1007.8
20260506042818 62 71 0.0 2.0 0.00 0.00 0.00 80 1007.7
20260506042317 63 72 0.0 2.0 0.00 0.00 0.00 80 1007.7
20260506041815 63 48 1.0 2.0 0.00 0.00 0.00 80 1007.8
20260506041311 63 62 1.0 5.0 0.00 0.00 0.00 80 1007.6
20260506040809 63 72 1.0 2.0 0.00 0.00 0.00 79 1007.5
20260506040306 63 74 1.0 3.0 0.00 0.00 0.00 79 1007.4
20260506035802 63 70 0.0 1.0 0.00 0.00 0.00 79 1007.2
20260506035259 64 69 1.0 1.0 0.00 0.00 0.00 79 1007.3
20260506034757 64 77 0.0 3.0 0.00 0.00 0.00 79 1007.7
20260506034254 64 70 0.0 1.0 0.00 0.00 0.00 79 1007.3
20260506033750 64 70 2.0 3.0 0.00 0.00 0.00 79 1007.4
20260506033248 65 66 0.0 2.0 0.00 0.00 0.00 79 1007.1
20260506032745 65 66 0.0 1.0 0.00 0.00 0.00 78 1007.3
20260506032242 65 74 1.0 2.0 0.00 0.00 0.00 78 1007.2
20260506031738 66 71 1.0 5.0 0.00 0.00 0.00 78 1006.9
20260506031236 66 68 1.0 3.0 0.00 0.00 0.00 78 1007.0
20260506030734 67 194 1.0 8.0 0.00 0.00 0.00 77 1006.9
20260506030231 67 64 1.0 1.0 0.00 0.00 0.00 77 1006.7
20260506025727 68 74 0.0 5.0 0.00 0.00 0.00 76 1006.8
20260506025224 68 76 1.0 1.0 0.00 0.00 0.00 77 1006.6
20260506024721 69 88 1.0 1.0 0.00 0.00 0.00 77 1006.2
20260506024218 69 70 0.0 1.0 0.00 0.00 0.00 76 1006.0
20260506023714 69 71 0.0 2.0 0.00 0.00 0.00 76 1006.0
20260506023211 69 72 0.0 1.0 0.00 0.00 0.00 76 1005.9
20260506022708 69 47 0.0 2.0 0.00 0.00 0.00 76 1005.5
20260506022206 70 31 0.0 1.0 0.00 0.00 0.00 76 1005.4
20260506021704 70 77 0.0 1.0 0.00 0.00 0.00 76 1005.6
20260506021200 70 69 0.0 1.0 0.00 0.00 0.00 76 1005.4
20260506020657 70 45 0.0 1.0 0.00 0.00 0.00 76 1005.2
20260506020155 70 81 0.0 1.0 0.00 0.00 0.00 76 1005.2
20260506015652 71 75 0.0 1.0 0.00 0.00 0.00 75 1004.9
20260506015150 71 75 0.0 1.0 0.00 0.00 0.00 75 1005.1
20260506014647 71 72 0.0 1.0 0.00 0.00 0.00 74 1005.0
20260506014142 72 67 1.0 5.0 0.00 0.00 0.00 74 1004.7
20260506013641 73 102 0.0 1.0 0.00 0.00 0.00 74 1004.5
20260506013137 73 73 0.0 0.0 0.00 0.00 0.00 73 1004.8
20260506012633 73 69 0.0 1.0 0.00 0.00 0.00 72 1004.9
20260506012130 73 74 0.0 1.0 0.00 0.00 0.00 72 1004.7
20260506011628 73 73 0.0 2.0 0.00 0.00 0.00 72 1004.5
20260506011124 73 69 0.0 1.0 0.00 0.00 0.00 71 1004.2
20260506010623 73 80 0.0 1.0 0.00 0.00 0.00 71 1004.5
20260506010119 74 51 0.0 0.0 0.00 0.00 0.00 71 1004.0
20260506005616 74 98 1.0 1.0 0.00 0.00 0.00 71 1003.9
20260506005113 74 66 1.0 2.0 0.00 0.00 0.00 71 1003.8
20260506004610 74 64 1.0 2.0 0.00 0.00 0.00 70 1004.0
20260506004106 74 72 0.0 2.0 0.00 0.00 0.00 70 1003.9
20260506003603 75 81 0.0 6.0 0.00 0.00 0.00 69 1004.2
20260506003059 75 71 0.0 1.0 0.00 0.00 0.00 69 1003.9
20260506002555 75 70 0.0 1.0 0.00 0.00 0.00 69 1004.0
20260506002051 76 74 0.0 2.0 0.00 0.00 0.00 68 1004.3
20260506001547 76 75 0.0 0.0 0.00 0.00 0.00 69 1003.8
20260506001045 77 73 0.0 0.0 0.00 0.00 0.00 68 1003.9
20260506000542 78 61 2.0 9.0 0.00 0.00 0.00 67 1003.7
20260506000039 78 74 0.0 1.0 0.00 0.00 0.00 66 1003.3
20260505235537 79 70 0.0 1.0 0.00 0.00 0.00 66 1003.3
20260505235034 79 339 1.0 2.0 0.00 0.00 0.00 65 1003.3
20260505234531 80 58 1.0 2.0 0.00 0.00 0.00 64 1003.4
20260505234028 80 68 2.0 3.0 0.00 0.00 0.00 64 1003.3
20260505233525 81 79 0.0 1.0 0.00 0.00 0.00 63 1003.0
20260505233023 82 74 1.0 1.0 0.00 0.00 0.00 62 1003.2
20260505232520 82 73 1.0 2.0 0.00 0.00 0.00 61 1003.1
20260505232018 83 73 0.0 6.0 0.00 0.00 0.00 60 1002.8
20260505231514 84 73 0.0 1.0 0.00 0.00 0.00 58 1002.8